TimeCEST,TemperatureF,Dew PointF,Humidity,Sea Level PressureIn,VisibilityMPH,Wind Direction,Wind SpeedMPH,Gust SpeedMPH,PrecipitationIn,Events,Conditions,WindDirDegrees,DateUTC
12:01 AM,41.0,39.2,93,29.98,-9999.0,ENE,2.3,-,N/A,,Mist,70,2012-10-10 22:01:00
12:05 AM,41.0,39.2,93,29.98,6.2,ENE,2.3,-,N/A,,Unknown,70,2012-10-10 22:05:00
12:18 AM,41.0,41.0,100,29.98,6.2,ENE,2.3,-,N/A,,Unknown,60,2012-10-10 22:18:00
12:25 AM,41.0,39.2,93,29.98,6.2,ENE,2.3,-,N/A,,Unknown,70,2012-10-10 22:25:00
12:40 AM,39.2,39.2,100,29.98,4.3,NE,2.3,-,N/A,,Mist,50,2012-10-10 22:40:00
12:47 AM,39.2,39.2,100,29.98,-9999.0,ENE,2.3,-,N/A,,Mist,60,2012-10-10 22:47:00
12:55 AM,37.4,37.4,100,29.98,-9999.0,ENE,2.3,-,N/A,,Mist,60,2012-10-10 22:55:00
12:59 AM,37.4,37.4,100,29.98,5.0,ENE,2.3,-,N/A,,Mist,60,2012-10-10 22:59:00
1:12 AM,39.2,37.4,93,29.98,4.3,NE,3.5,-,N/A,,Mist,50,2012-10-10 23:12:00
1:15 AM,39.2,39.2,100,29.98,2.2,ENE,2.3,-,N/A,,Mist,60,2012-10-10 23:15:00
1:25 AM,41.0,39.2,93,29.98,-9999.0,ENE,2.3,-,N/A,,Mist,60,2012-10-10 23:25:00
1:29 AM,39.2,39.2,100,29.98,3.7,NE,2.3,-,N/A,,Mist,50,2012-10-10 23:29:00
1:33 AM,39.2,39.2,100,29.98,5.6,NE,2.3,-,N/A,,Mist,50,2012-10-10 23:33:00
1:37 AM,39.2,39.2,100,29.98,4.3,ENE,2.3,-,N/A,,Mist,60,2012-10-10 23:37:00
1:46 AM,39.2,39.2,100,29.98,-9999.0,ENE,3.5,-,N/A,,Mist,60,2012-10-10 23:46:00
1:50 AM,39.2,37.4,93,29.98,3.1,ENE,2.3,-,N/A,,Mist,60,2012-10-10 23:50:00
1:55 AM,37.4,37.4,100,29.98,-9999.0,NE,2.3,-,N/A,,Mist,50,2012-10-10 23:55:00
2:02 AM,39.2,39.2,100,29.98,-9999.0,NE,2.3,-,N/A,,Mist,50,2012-10-11 00:02:00
2:06 AM,39.2,39.2,100,29.98,-9999.0,ENE,2.3,-,N/A,,Mist,60,2012-10-11 00:06:00
2:14 AM,37.4,37.4,100,29.98,0.8,ENE,2.3,-,N/A,,Mist,60,2012-10-11 00:14:00
2:21 AM,37.4,37.4,100,29.98,1.0,ENE,2.3,-,N/A,,Mist,60,2012-10-11 00:21:00
2:25 AM,37.4,37.4,100,29.98,0.9,ENE,2.3,-,N/A,,Mist,60,2012-10-11 00:25:00
2:33 AM,37.4,37.4,100,29.98,0.4,ENE,3.5,-,N/A,Fog,Fog,60,2012-10-11 00:33:00
2:38 AM,37.4,37.4,100,29.98,0.5,ENE,3.5,-,N/A,Fog,Fog,70,2012-10-11 00:38:00
2:45 AM,37.4,37.4,100,29.95,1.0,ENE,2.3,-,N/A,,Mist,70,2012-10-11 00:45:00
2:49 AM,37.4,37.4,100,29.95,-9999.0,East,2.3,-,N/A,,Mist,80,2012-10-11 00:49:00
2:55 AM,37.4,37.4,100,29.95,4.3,East,3.5,-,N/A,,Mist,90,2012-10-11 00:55:00
2:59 AM,37.4,37.4,100,29.95,6.2,East,3.5,-,N/A,,Unknown,100,2012-10-11 00:59:00
3:12 AM,39.2,37.4,93,29.95,5.6,East,3.5,-,N/A,,Mist,90,2012-10-11 01:12:00
3:25 AM,37.4,37.4,100,29.95,5.6,East,4.6,-,N/A,,Mist,90,2012-10-11 01:25:00
3:29 AM,39.2,39.2,100,29.95,4.3,East,3.5,-,N/A,,Mist,80,2012-10-11 01:29:00
3:37 AM,37.4,37.4,100,29.95,5.0,East,3.5,-,N/A,,Mist,80,2012-10-11 01:37:00
3:41 AM,37.4,37.4,100,29.95,4.3,East,3.5,-,N/A,,Mist,80,2012-10-11 01:41:00
3:49 AM,37.4,37.4,100,29.95,-9999.0,ENE,3.5,-,N/A,,Mist,70,2012-10-11 01:49:00
3:55 AM,37.4,35.6,93,29.95,1.4,ENE,4.6,-,N/A,,Mist,70,2012-10-11 01:55:00
4:00 AM,37.4,37.4,100,29.95,0.9,East,3.5,-,N/A,,Mist,80,2012-10-11 02:00:00
4:14 AM,35.6,35.6,100,29.95,1.0,East,4.6,-,N/A,,Mist,90,2012-10-11 02:14:00
4:19 AM,35.6,35.6,100,29.95,3.1,East,4.6,-,N/A,,Mist,90,2012-10-11 02:19:00
4:25 AM,33.8,33.8,100,29.95,5.6,East,4.6,-,N/A,,Mist,90,2012-10-11 02:25:00
4:38 AM,33.8,33.8,100,29.95,6.2,East,5.8,-,N/A,,Unknown,100,2012-10-11 02:38:00
4:55 AM,35.6,35.6,100,29.92,6.2,East,4.6,-,N/A,,Unknown,100,2012-10-11 02:55:00
5:25 AM,35.6,35.6,100,29.92,6.2,East,5.8,-,N/A,,Unknown,90,2012-10-11 03:25:00
5:55 AM,37.4,37.4,100,29.92,6.2,East,5.8,-,N/A,,Unknown,100,2012-10-11 03:55:00
6:25 AM,37.4,37.4,100,29.92,6.2,East,4.6,-,N/A,,Unknown,100,2012-10-11 04:25:00
6:55 AM,37.4,35.6,93,29.92,6.2,East,5.8,-,N/A,,Unknown,90,2012-10-11 04:55:00
7:25 AM,37.4,37.4,100,29.89,6.2,East,5.8,-,N/A,,Unknown,90,2012-10-11 05:25:00
7:38 AM,37.4,35.6,93,29.89,6.2,East,5.8,-,N/A,,Unknown,100,2012-10-11 05:38:00
7:55 AM,37.4,35.6,93,29.89,6.2,East,5.8,-,N/A,,Unknown,100,2012-10-11 05:55:00
8:25 AM,37.4,35.6,93,29.89,6.2,East,5.8,-,N/A,,Partly Cloudy,90,2012-10-11 06:25:00
8:55 AM,39.2,37.4,93,29.89,6.2,East,5.8,-,N/A,,Unknown,100,2012-10-11 06:55:00
9:25 AM,41.0,39.2,93,29.89,6.2,ESE,6.9,-,N/A,,Unknown,110,2012-10-11 07:25:00
9:55 AM,44.6,39.2,81,29.89,6.2,ESE,6.9,-,N/A,,Unknown,110,2012-10-11 07:55:00
10:25 AM,46.4,41.0,81,29.89,6.2,ESE,9.2,-,N/A,,Unknown,110,2012-10-11 08:25:00
10:55 AM,48.2,41.0,76,29.86,6.2,ESE,8.1,-,N/A,,Unknown,110,2012-10-11 08:55:00
11:25 AM,50.0,42.8,76,29.86,6.2,SE,9.2,-,N/A,,Unknown,130,2012-10-11 09:25:00
11:55 AM,51.8,41.0,67,29.86,6.2,SE,10.4,-,N/A,,Unknown,130,2012-10-11 09:55:00
12:25 PM,53.6,42.8,67,29.86,6.2,ESE,10.4,-,N/A,,Unknown,110,2012-10-11 10:25:00
12:55 PM,55.4,41.0,58,29.83,6.2,ESE,11.5,-,N/A,,Unknown,120,2012-10-11 10:55:00
1:25 PM,55.4,42.8,63,29.83,6.2,SE,11.5,-,N/A,,Unknown,130,2012-10-11 11:25:00
1:55 PM,55.4,41.0,58,29.80,6.2,ESE,12.7,-,N/A,,Partly Cloudy,120,2012-10-11 11:55:00
2:25 PM,57.2,42.8,59,29.80,6.2,ESE,12.7,-,N/A,,Unknown,120,2012-10-11 12:25:00
2:55 PM,57.2,42.8,59,29.80,6.2,ESE,13.8,-,N/A,,Unknown,120,2012-10-11 12:55:00
3:25 PM,57.2,42.8,59,29.77,6.2,ESE,11.5,-,N/A,,Unknown,120,2012-10-11 13:25:00
3:55 PM,57.2,42.8,59,29.77,6.2,ESE,11.5,-,N/A,,Unknown,110,2012-10-11 13:55:00
4:17 PM,57.2,41.0,55,29.77,6.2,ESE,12.7,-,N/A,,Unknown,110,2012-10-11 14:17:00
4:25 PM,57.2,42.8,59,29.77,6.2,ESE,12.7,-,N/A,,Unknown,120,2012-10-11 14:25:00
4:55 PM,57.2,42.8,59,29.74,6.2,ESE,10.4,-,N/A,,Unknown,110,2012-10-11 14:55:00
5:25 PM,57.2,42.8,59,29.74,6.2,ESE,10.4,-,N/A,,Unknown,110,2012-10-11 15:25:00
5:55 PM,55.4,42.8,63,29.74,6.2,ESE,6.9,-,N/A,,Unknown,110,2012-10-11 15:55:00
6:25 PM,51.8,42.8,71,29.74,6.2,East,6.9,-,N/A,,Unknown,90,2012-10-11 16:25:00
6:55 PM,48.2,42.8,82,29.74,6.2,East,5.8,-,N/A,,Unknown,90,2012-10-11 16:55:00
7:25 PM,50.0,42.8,76,29.74,6.2,East,5.8,-,N/A,,Mostly Cloudy,90,2012-10-11 17:25:00
7:55 PM,46.4,42.8,87,29.71,6.2,East,6.9,-,N/A,,Partly Cloudy,80,2012-10-11 17:55:00
8:25 PM,50.0,44.6,82,29.71,6.2,East,8.1,-,N/A,,Partly Cloudy,90,2012-10-11 18:25:00
8:55 PM,50.0,44.6,82,29.71,6.2,East,9.2,-,N/A,,Unknown,90,2012-10-11 18:55:00
9:25 PM,48.2,44.6,87,29.71,6.2,East,6.9,-,N/A,,Partly Cloudy,100,2012-10-11 19:25:00
9:55 PM,50.0,44.6,82,29.71,6.2,East,6.9,-,N/A,,Overcast,100,2012-10-11 19:55:00
10:25 PM,50.0,46.4,87,29.71,6.2,ESE,6.9,-,N/A,,Overcast,110,2012-10-11 20:25:00
10:55 PM,50.0,46.4,87,29.71,6.2,ESE,8.1,-,N/A,,Overcast,110,2012-10-11 20:55:00
11:25 PM,51.8,46.4,82,29.71,6.2,SE,6.9,-,N/A,,Overcast,130,2012-10-11 21:25:00